Flag for U.S.A. Weather past 2 weeks in Berkeley, California, U.S.A.

Now
52 °F

Sunny.


Feels Like: 52 °F
Forecast: 49 / 64 °F
Wind: No wind

Location: Metro Oakland International Airport

Current Time: Jan 31, 2015 at 8:41:14 AM

Latest Report: Jan 31, 2015 at 7:53 AM


Visibility: 10 mi

Pressure: 29.95 "Hg

Humidity: 59%

Dew point: 38 °F

Location of BerkeleyLocation

Historic Weather in Berkeley — Graph

°F

Berkeley temperature yesterday

Maximum temperature yesterday: 61 °F (at 2:53 PM)
Minimum temperature yesterday: 46 °F (at 2:53 AM)
Average temperature yesterday: 53 °F

Past Weeks' High & Low Weather Summary

 TemperatureHumidityPressure
High69 °F (Jan 24, 12:53 PM)97% (Jan 18, 7:53 AM)30.37 "Hg (Jan 18, 7:53 AM)
Low41 °F (Jan 23, 3:53 AM)35% (Jan 24, 11:53 AM)29.91 "Hg (Jan 30, 3:53 PM)
Average53 °F79%30.17 "Hg
* Reported Jan 16 6:53 AM — Jan 31 6:53 AM, Berkeley, Weather by CustomWeather, © 2014

Note: Actual official high and low records may vary slightly from our data, if they occured in-between our weather recording intervals... More about our weather records

Advertising

Berkeley weather history for previous 24 hours

 ConditionsComfort  
Time TempWeatherWind HumidityBarometerVisibility
6:53 AM
Jan 31
51 °FClear.No wind69%29.94 "Hg10 mi
5:53 AM52 °FClear.8 mph86%29.92 "Hg10 mi
4:53 AM45 °FClear.6 mph97%29.91 "Hg10 mi
3:53 AM46 °FFog.5 mph93%29.91 "Hg10 mi
2:53 AM49 °FFog.3 mph93%29.92 "Hg7 mi
1:53 AM47 °FPassing clouds.No wind90%29.92 "Hg10 mi
12:53 AM46 °FFog.3 mph93%29.93 "Hg10 mi
11:53 PM
Jan 30
48 °FClear.No wind89%29.93 "Hg10 mi
10:53 PM48 °FFog.3 mph93%29.93 "Hg5 mi
9:53 PM49 °FFog.3 mph97%29.93 "Hg6 mi
8:53 PM54 °FPassing clouds.3 mph93%29.93 "Hg7 mi
7:53 PM55 °FClear.7 mph87%29.93 "Hg10 mi
6:53 PM55 °FClear.6 mph87%29.93 "Hg10 mi
5:53 PM56 °FClear.8 mph84%29.93 "Hg10 mi
4:53 PM59 °FSunny.12 mph75%29.91 "Hg10 mi
3:53 PM61 °FSunny.15 mph67%29.91 "Hg10 mi
2:53 PM61 °FSunny.3 mph67%29.92 "Hg10 mi
1:53 PM57 °FSunny.3 mph78%29.93 "Hg10 mi
12:53 PM57 °FSunny.3 mph78%29.96 "Hg10 mi
11:53 AM54 °FPassing clouds.6 mph83%30.00 "Hg8 mi
10:53 AM54 °FLow clouds.No wind86%30.03 "Hg7 mi
9:53 AM54 °FFog.3 mph86%30.04 "Hg5 mi
8:53 AM52 °FFog.3 mph93%30.03 "Hg5 mi
Weather by CustomWeather, © 2014

See weather overviewHow to use our weather pages